GW4813 Weather Reports


time (UTC)temp
F
wind
direction
speed
knots
gust
knots
rain 1hr
in
rain 24hr
in
rain mn
in
humidity
%
barometer
mb
20260508220509 63 256 0.0 2.6 0.00 0.00 0.00 57 1009.9
20260508220033 63 240 0.0 3.5 0.00 0.00 0.00 56 1009.9
20260508215509 63 265 1.7 3.5 0.00 0.00 0.00 54 1009.9
20260508215011 63 267 0.9 2.6 0.00 0.00 0.00 55 1009.8
20260508214528 63 277 0.9 2.6 0.00 0.00 0.00 54 1009.8
20260508214006 63 240 0.9 2.6 0.00 0.00 0.00 53 1009.9
20260508213507 64 263 1.7 4.3 0.00 0.00 0.00 52 1009.8
20260508213024 64 263 0.9 6.1 0.00 0.00 0.00 53 1009.8
20260508212508 64 292 2.6 6.1 0.00 0.00 0.00 52 1009.9
20260508212003 64 254 1.7 4.3 0.00 0.00 0.00 53 1009.9
20260508211505 64 283 1.7 4.3 0.00 0.00 0.00 51 1010.0
20260508211006 64 243 2.6 4.3 0.00 0.00 0.00 51 1010.1
20260508210503 64 270 2.6 4.3 0.00 0.00 0.00 50 1010.2
20260508210006 64 257 2.6 6.1 0.00 0.00 0.00 50 1010.3
20260508205504 64 236 3.5 7.0 0.00 0.00 0.00 49 1010.2
20260508205006 64 276 3.5 9.6 0.00 0.00 0.00 49 1010.2
20260508204510 64 218 3.5 9.6 0.00 0.00 0.00 50 1010.2
20260508204006 65 243 4.3 7.8 0.00 0.00 0.00 48 1010.2
20260508203507 65 252 3.5 9.6 0.00 0.00 0.00 48 1010.3
20260508203014 65 248 6.1 9.6 0.00 0.00 0.00 47 1010.5
20260508202508 65 288 5.2 9.6 0.00 0.00 0.00 48 1010.5
20260508202009 65 270 4.3 11.3 0.00 0.00 0.00 48 1010.5
20260508201522 65 248 6.1 12.2 0.00 0.00 0.00 48 1010.6
20260508201010 65 260 7.8 13.0 0.00 0.00 0.00 47 1010.7
20260508200504 65 231 7.8 14.8 0.00 0.00 0.00 46 1010.8
20260508200005 65 259 7.8 14.8 0.00 0.00 0.00 46 1010.7
20260508195503 66 265 7.8 14.8 0.00 0.00 0.00 45 1010.6
20260508195003 66 299 7.0 14.8 0.00 0.00 0.00 45 1010.7
20260508194508 66 252 10.4 14.8 0.00 0.00 0.00 45 1010.7
20260508194003 66 238 8.7 17.4 0.00 0.00 0.00 43 1010.8
20260508193506 66 259 11.3 17.4 0.00 0.00 0.00 43 1010.8
20260508193012 66 233 8.7 16.5 0.00 0.00 0.00 44 1011.0
20260508192507 67 200 9.6 14.8 0.00 0.00 0.00 45 1011.0
20260508192012 66 219 7.8 14.8 0.00 0.00 0.00 44 1011.1
20260508191524 67 205 8.7 14.8 0.00 0.00 0.00 44 1011.2
20260508191007 67 269 8.7 15.6 0.00 0.00 0.00 45 1011.2
20260508190508 67 238 6.1 15.6 0.00 0.00 0.00 47 1011.4
20260508190032 67 248 7.8 14.8 0.00 0.00 0.00 45 1011.5
20260508185508 67 180 7.0 14.8 0.00 0.00 0.00 47 1011.6
20260508185011 66 242 10.4 15.6 0.00 0.00 0.00 47 1011.7
20260508184504 66 246 10.4 15.6 0.00 0.00 0.00 45 1011.7
20260508184004 67 248 6.1 13.9 0.00 0.00 0.00 48 1011.7
20260508183507 66 245 7.8 13.9 0.00 0.00 0.00 48 1011.7
20260508183008 66 259 7.8 12.2 0.00 0.00 0.00 48 1011.8
20260508182504 65 238 7.0 12.2 0.00 0.00 0.00 49 1011.8
20260508182006 64 276 8.7 12.2 0.00 0.00 0.00 49 1011.9
20260508181516 64 240 5.2 10.4 0.00 0.00 0.00 50 1011.9
20260508181007 64 238 5.2 10.4 0.00 0.00 0.00 51 1011.9
20260508180510 64 259 6.1 11.3 0.00 0.00 0.00 50 1012.0
20260508180020 65 278 6.1 13.0 0.00 0.00 0.00 49 1012.1
20260508175508 65 241 6.1 13.9 0.00 0.00 0.00 50 1012.1
20260508175012 65 208 7.8 15.6 0.00 0.00 0.00 48 1012.1
20260508174522 66 212 6.1 20.9 0.00 0.00 0.00 48 1012.1
20260508174010 67 233 10.4 20.9 0.00 0.00 0.00 46 1012.3
20260508173510 67 242 10.4 15.6 0.00 0.00 0.00 48 1012.3
20260508173007 67 256 8.7 14.8 0.00 0.00 0.00 47 1012.3
20260508172505 67 226 9.6 14.8 0.00 0.00 0.00 47 1012.4
20260508172006 67 224 7.8 14.8 0.00 0.00 0.00 48 1012.4
20260508171514 66 230 8.7 14.8 0.00 0.00 0.00 47 1012.5
20260508171009 66 261 7.0 13.0 0.00 0.00 0.00 46 1012.6
20260508170507 65 243 8.7 15.6 0.00 0.00 0.00 48 1012.9
20260508170016 65 250 10.4 15.6 0.00 0.00 0.00 52 1013.0
20260508165507 65 245 7.8 13.9 0.00 0.00 0.00 50 1013.2
20260508165013 64 212 9.6 13.9 0.00 0.00 0.00 50 1013.3
20260508164517 64 236 7.8 13.9 0.00 0.00 0.00 49 1013.4
20260508164011 64 240 4.3 10.4 0.00 0.00 0.00 51 1013.4
20260508163509 63 245 5.2 10.4 0.00 0.00 0.00 54 1013.6
20260508163023 63 245 6.1 13.0 0.00 0.00 0.00 51 1013.6
20260508162510 63 242 6.1 14.8 0.00 0.00 0.00 53 1013.6
20260508162011 63 203 7.0 14.8 0.00 0.00 0.00 52 1013.6
20260508161525 63 238 6.1 9.6 0.00 0.00 0.00 53 1013.7
20260508161004 63 278 6.1 17.4 0.00 0.00 0.00 53 1013.8
20260508160504 64 201 7.0 17.4 0.00 0.00 0.00 52 1013.8
20260508160011 64 159 9.6 17.4 0.00 0.00 0.00 51 1013.7
20260508155508 63 181 7.0 16.5 0.00 0.00 0.00 52 1013.8
20260508155010 63 210 6.1 18.2 0.00 0.00 0.00 52 1013.9
20260508154516 62 248 8.7 18.2 0.00 0.00 0.00 52 1014.0
20260508154010 63 225 7.0 13.0 0.00 0.00 0.00 53 1013.9
20260508153513 62 195 8.7 13.0 0.00 0.00 0.00 52 1013.9
20260508153020 62 214 6.1 10.4 0.00 0.00 0.00 52 1013.9
20260508152510 62 233 5.2 12.2 0.00 0.00 0.00 53 1013.9
20260508152011 61 224 5.2 14.8 0.00 0.00 0.00 54 1013.9
20260508151529 60 264 7.0 14.8 0.00 0.00 0.00 56 1013.9
20260508151013 60 232 8.7 13.9 0.00 0.00 0.00 54 1013.9
20260508150511 60 206 4.3 10.4 0.00 0.00 0.00 56 1014.0
20260508150033 60 230 6.1 10.4 0.00 0.00 0.00 55 1014.0
20260508145507 60 235 4.3 11.3 0.00 0.00 0.00 55 1014.0
20260508145004 60 266 8.7 11.3 0.00 0.00 0.00 54 1014.2
20260508144512 60 274 7.0 11.3 0.00 0.00 0.00 54 1014.1
20260508144005 60 278 7.0 11.3 0.00 0.00 0.00 53 1014.1
20260508143509 61 259 4.3 13.0 0.00 0.00 0.00 54 1014.3
20260508143024 60 255 6.1 13.0 0.00 0.00 0.00 59 1014.3
20260508142507 59 250 5.2 12.2 0.00 0.00 0.00 58 1014.3
20260508142010 59 279 6.1 12.2 0.00 0.00 0.00 55 1014.4
20260508141531 58 268 7.0 11.3 0.00 0.00 0.00 58 1014.5
20260508141009 58 264 4.3 12.2 0.00 0.00 0.00 57 1014.5
20260508140511 57 227 7.8 12.2 0.00 0.00 0.00 57 1014.5
20260508140025 57 286 5.2 11.3 0.00 0.00 0.00 55 1014.6
20260508135510 57 257 7.0 11.3 0.00 0.00 0.00 56 1014.5
20260508135012 57 214 7.0 12.2 0.00 0.00 0.00 57 1014.6
20260508134537 56 240 6.1 12.2 0.00 0.00 0.00 56 1014.6
20260508134008 56 236 6.1 10.4 0.00 0.00 0.00 60 1014.6
20260508133512 56 263 2.6 7.0 0.00 0.00 0.00 60 1014.7
20260508133015 55 290 2.6 6.1 0.00 0.00 0.00 60 1014.7
20260508132508 55 285 3.5 8.7 0.00 0.00 0.00 60 1014.5
20260508132008 54 233 4.3 8.7 0.00 0.00 0.00 58 1014.5
20260508131522 54 233 4.3 8.7 0.00 0.00 0.00 60 1014.5
20260508131010 54 264 4.3 9.6 0.00 0.00 0.00 60 1014.4
20260508130508 54 263 5.2 9.6 0.00 0.00 0.00 59 1014.5
20260508130028 54 224 2.6 9.6 0.00 0.00 0.00 60 1014.5
20260508125512 54 222 4.3 9.6 0.00 0.00 0.00 62 1014.5
20260508125014 53 291 3.5 7.8 0.00 0.00 0.00 60 1014.6
20260508124530 53 242 3.5 7.8 0.00 0.00 0.00 59 1014.6
20260508124012 54 247 4.3 7.8 0.00 0.00 0.00 59 1014.5
20260508123513 53 285 5.2 7.8 0.00 0.00 0.00 59 1014.5
20260508123042 53 250 3.5 9.6 0.00 0.00 0.00 59 1014.5
20260508122508 53 217 6.1 9.6 0.00 0.00 0.00 62 1014.6
20260508122008 53 233 3.5 8.7 0.00 0.00 0.00 61 1014.5
20260508121517 52 247 3.5 5.2 0.00 0.00 0.00 62 1014.5
20260508121007 51 238 1.7 4.3 0.00 0.00 0.00 64 1014.4
20260508120507 51 229 2.6 4.3 0.00 0.00 0.00 63 1014.6
20260508120005 51 281 1.7 4.3 0.00 0.00 0.00 64 1014.6
20260508115504 51 236 1.7 4.3 0.00 0.00 0.00 66 1014.5
20260508115003 50 214 0.0 2.6 0.00 0.00 0.00 69 1014.4
20260508114508 49 189 0.0 2.6 0.00 0.00 0.00 70 1014.3
20260508114004 49 117 0.0 1.7 0.00 0.00 0.00 70 1014.3
20260508113503 48 113 0.0 0.0 0.00 0.00 0.00 69 1014.3
20260508113014 48 103 0.0 0.0 0.00 0.00 0.00 71 1014.1
20260508112507 47 84 0.0 0.0 0.00 0.00 0.00 72 1014.1
20260508112006 47 79 0.0 0.0 0.00 0.00 0.00 73 1014.1
20260508111517 46 79 0.0 0.0 0.00 0.00 0.00 74 1014.1
20260508111011 46 79 0.0 0.0 0.00 0.00 0.00 75 1014.0
20260508110507 45 76 0.0 0.0 0.00 0.00 0.00 75 1014.0
20260508110021 45 96 0.0 0.0 0.00 0.00 0.00 75 1014.0
20260508105510 44 109 0.0 0.0 0.00 0.00 0.00 75 1014.0
20260508105011 44 127 0.0 0.0 0.00 0.00 0.00 76 1014.0
20260508104524 44 127 0.0 0.0 0.00 0.00 0.00 75 1013.9
20260508104003 44 117 0.0 0.0 0.00 0.00 0.00 75 1013.9
20260508103503 45 117 0.0 0.9 0.00 0.00 0.00 73 1013.9
20260508103007 45 105 0.0 0.9 0.00 0.00 0.00 72 1013.9
20260508102504 45 104 0.0 1.7 0.00 0.00 0.00 72 1013.9
20260508102007 46 104 0.0 2.6 0.00 0.00 0.00 72 1013.8
20260508101513 46 128 0.9 2.6 0.00 0.00 0.00 70 1013.8
20260508101006 47 226 0.9 1.7 0.00 0.00 0.00 69 1013.8
20260508100511 47 266 0.0 1.7 0.00 0.00 0.00 68 1013.9
20260508100018 47 259 0.0 1.7 0.00 0.00 0.00 68 1013.9
20260508095507 47 270 0.0 3.5 0.00 0.00 0.00 68 1013.9
20260508095009 47 229 0.9 6.1 0.00 0.00 0.00 68 1013.9
20260508094521 48 242 1.7 6.1 0.00 0.00 0.00 67 1013.9
20260508094010 48 238 3.5 6.1 0.00 0.00 0.00 67 1013.9
20260508093509 48 248 2.6 4.3 0.00 0.00 0.00 67 1014.0
20260508093026 47 240 2.6 5.2 0.00 0.00 0.00 68 1014.0
20260508092504 47 243 2.6 5.2 0.00 0.00 0.00 67 1013.9
20260508092004 47 233 1.7 5.2 0.00 0.00 0.00 67 1013.9
20260508091509 47 236 1.7 7.0 0.00 0.00 0.00 67 1013.9
20260508091005 47 218 2.6 7.0 0.00 0.00 0.00 68 1013.9
20260508090504 47 246 1.7 5.2 0.00 0.00 0.00 68 1013.9
20260508090024 47 229 2.6 4.3 0.00 0.00 0.00 67 1013.9
20260508085507 47 226 1.7 4.3 0.00 0.00 0.00 68 1013.9
20260508085007 47 236 1.7 4.3 0.00 0.00 0.00 68 1013.9
20260508084519 47 159 1.7 4.3 0.00 0.00 0.00 67 1014.0
20260508084007 47 250 1.7 5.2 0.00 0.00 0.00 67 1014.0
20260508083507 47 236 2.6 5.2 0.00 0.00 0.00 67 1014.0
20260508083024 47 263 1.7 6.1 0.00 0.00 0.00 66 1014.0
20260508082511 47 242 3.5 6.1 0.00 0.00 0.00 66 1013.9
20260508082012 47 239 1.7 3.5 0.00 0.00 0.00 68 1014.0
20260508081528 47 250 1.7 3.5 0.00 0.00 0.00 68 1014.0
20260508081008 47 270 1.7 3.5 0.00 0.00 0.00 67 1013.9
20260508080505 47 248 0.9 2.6 0.00 0.00 0.00 68 1013.9
20260508080010 47 269 0.9 4.3 0.00 0.00 0.00 67 1013.9
20260508075506 48 256 0.9 4.3 0.00 0.00 0.00 65 1013.8
20260508075005 47 231 1.7 4.3 0.00 0.00 0.00 65 1013.9
20260508074520 47 252 0.9 5.2 0.00 0.00 0.00 66 1014.0
20260508074008 47 257 0.9 5.2 0.00 0.00 0.00 65 1013.9
20260508073508 47 252 0.0 2.6 0.00 0.00 0.00 66 1014.0
20260508073021 47 328 0.0 0.0 0.00 0.00 0.00 65 1014.1
20260508072507 47 319 0.0 0.9 0.00 0.00 0.00 65 1014.0
20260508072010 48 319 0.0 1.7 0.00 0.00 0.00 64 1014.1
20260508071529 48 319 0.9 2.6 0.00 0.00 0.00 63 1014.1
20260508071013 48 315 0.9 3.5 0.00 0.00 0.00 62 1014.1
20260508070512 49 280 0.9 6.1 0.00 0.00 0.00 62 1014.1
20260508070027 49 269 1.7 8.7 0.00 0.00 0.00 62 1014.1
20260508065506 49 232 2.6 8.7 0.00 0.00 0.00 61 1014.1
20260508065014 49 236 1.7 6.1 0.00 0.00 0.00 63 1014.1
20260508064515 49 223 3.5 6.1 0.00 0.00 0.00 62 1014.1
20260508064004 49 260 2.6 6.1 0.00 0.00 0.00 62 1014.2
20260508063507 49 247 3.5 6.1 0.00 0.00 0.00 62 1014.1
20260508063018 49 237 3.5 6.1 0.00 0.00 0.00 62 1014.1
20260508062510 49 231 1.7 6.1 0.00 0.00 0.00 63 1014.1
20260508062007 49 205 1.7 5.2 0.00 0.00 0.00 62 1014.1
20260508061523 49 149 2.6 5.2 0.00 0.00 0.00 61 1014.1
20260508061008 49 221 2.6 5.2 0.00 0.00 0.00 62 1014.1
20260508060508 49 199 2.6 5.2 0.00 0.00 0.00 61 1014.2
20260508060024 50 231 2.6 7.0 0.00 0.00 0.00 62 1014.2
20260508055507 50 215 3.5 7.0 0.00 0.00 0.00 62 1014.3
20260508055009 49 203 3.5 6.1 0.00 0.00 0.00 63 1014.3
20260508054529 49 195 3.5 5.2 0.00 0.00 0.00 63 1014.3
20260508054012 49 204 2.6 5.2 0.00 0.00 0.00 63 1014.3
20260508053510 49 231 2.6 5.2 0.00 0.00 0.00 63 1014.3
20260508053027 49 207 2.6 4.3 0.00 0.00 0.00 64 1014.3
20260508052505 49 207 2.6 5.2 0.00 0.00 0.00 64 1014.4
20260508052011 50 191 3.5 5.2 0.00 0.00 0.00 63 1014.3
20260508051522 50 210 3.5 5.2 0.00 0.00 0.00 62 1014.3
20260508051008 50 233 1.7 4.3 0.00 0.00 0.00 64 1014.3
20260508051004 50 231 1.7 4.3 0.00 0.00 0.00 64 1014.3
20260508050503 50 224 1.7 6.1 0.00 0.00 0.00 63 1014.3
20260508050005 50 234 2.6 6.1 0.00 0.00 0.00 63 1014.3
20260508045503 50 216 1.7 4.3 0.00 0.00 0.00 65 1014.3
20260508045004 50 201 1.7 4.3 0.00 0.00 0.00 65 1014.3
20260508044506 50 217 2.6 4.3 0.00 0.00 0.00 63 1014.3
20260508044007 50 186 1.7 5.2 0.00 0.00 0.00 64 1014.3
20260508043505 50 205 2.6 5.2 0.00 0.00 0.00 64 1014.4
20260508043009 50 195 2.6 4.3 0.00 0.00 0.00 65 1014.3
20260508042506 50 186 2.6 4.3 0.00 0.00 0.00 65 1014.3
20260508042002 50 215 2.6 4.3 0.00 0.00 0.00 64 1014.4
20260508041504 50 188 3.5 4.3 0.00 0.00 0.00 64 1014.3
20260508041002 49 205 1.7 4.3 0.00 0.00 0.00 64 1014.4
20260508040507 49 227 0.9 4.3 0.00 0.00 0.00 65 1014.5
20260508040009 50 205 1.7 3.5 0.00 0.00 0.00 64 1014.4
20260508035503 50 213 1.7 3.5 0.00 0.00 0.00 63 1014.4
20260508035003 50 215 1.7 6.1 0.00 0.00 0.00 63 1014.5
20260508034507 50 194 2.6 6.1 0.00 0.00 0.00 63 1014.4
20260508034004 50 191 3.5 5.2 0.00 0.00 0.00 63 1014.5
20260508033510 50 183 3.5 5.2 0.00 0.00 0.00 61 1014.5
20260508033011 50 218 2.6 6.1 0.00 0.00 0.00 61 1014.5
20260508032506 50 215 3.5 6.1 0.00 0.00 0.00 60 1014.5
20260508032010 50 199 3.5 5.2 0.00 0.00 0.00 61 1014.4
20260508031514 50 206 2.6 5.2 0.00 0.00 0.00 61 1014.4
20260508031007 50 205 2.6 4.3 0.00 0.00 0.00 61 1014.2
20260508030505 51 176 2.6 3.5 0.00 0.00 0.00 61 1014.1
20260508030004 51 205 0.9 1.7 0.00 0.00 0.00 62 1014.3
20260508025504 51 193 0.9 2.6 0.00 0.00 0.00 59 1014.3
20260508025005 51 192 1.7 3.5 0.00 0.00 0.00 60 1014.2
20260508024506 51 180 2.6 3.5 0.00 0.00 0.00 60 1014.0
20260508024004 51 177 2.6 3.5 0.00 0.00 0.00 61 1014.1
20260508023504 50 168 2.6 3.5 0.00 0.00 0.00 62 1014.1
20260508023006 50 194 1.7 3.5 0.00 0.00 0.00 63 1014.0
20260508022506 50 171 1.7 3.5 0.00 0.00 0.00 63 1014.0
20260508022004 50 167 1.7 2.6 0.00 0.00 0.00 63 1014.1
20260508021521 50 167 2.6 2.6 0.00 0.00 0.00 62 1014.1
20260508021005 49 182 1.7 3.5 0.00 0.00 0.00 64 1014.0
20260508020505 49 172 2.6 3.5 0.00 0.00 0.00 65 1014.1
20260508020017 49 144 0.0 0.9 0.00 0.00 0.00 71 1014.0
20260508015507 49 115 0.0 0.9 0.00 0.00 0.00 70 1014.1
20260508015007 49 118 0.0 0.0 0.00 0.00 0.00 71 1014.1
20260508014504 49 149 0.0 0.0 0.00 0.00 0.00 71 1014.2
20260508014004 49 149 0.0 0.0 0.00 0.00 0.00 65 1014.3
20260508013503 49 149 0.0 0.0 0.00 0.00 0.00 65 1014.3
20260508013007 49 148 0.0 0.0 0.00 0.00 0.00 66 1014.2
20260508012506 49 148 0.0 0.0 0.00 0.00 0.00 66 1014.1
20260508012004 49 148 0.0 0.0 0.00 0.00 0.00 69 1014.1
20260508011513 49 149 0.0 0.0 0.00 0.00 0.00 68 1014.1
20260508011004 49 149 0.0 0.0 0.00 0.00 0.00 68 1014.2
20260508010505 50 148 0.0 0.0 0.00 0.00 0.00 63 1014.3
20260508010015 50 148 0.0 0.0 0.00 0.00 0.00 62 1014.3
20260508005508 51 148 0.0 0.0 0.00 0.00 0.00 65 1014.2
20260508005008 51 154 0.0 0.0 0.00 0.00 0.00 62 1014.2
20260508004532 52 228 0.0 0.0 0.00 0.00 0.00 59 1014.2
20260508004009 52 229 0.0 0.0 0.00 0.00 0.00 55 1014.1
20260508003512 53 240 0.0 0.0 0.00 0.00 0.00 53 1014.2
20260508003024 53 240 0.0 0.9 0.00 0.00 0.00 54 1014.2
20260508002503 53 240 0.0 2.6 0.00 0.00 0.00 54 1014.1
20260508002004 54 237 0.9 2.6 0.00 0.00 0.00 53 1014.1
20260508001508 55 243 0.0 2.6 0.00 0.00 0.00 51 1014.1
20260508001004 55 255 0.0 2.6 0.00 0.00 0.00 49 1014.0
20260508000506 56 249 1.7 3.5 0.00 0.00 0.00 49 1013.9
20260508000010 56 257 1.7 3.5 0.00 0.00 0.00 48 1013.9
20260507235510 57 228 1.7 3.5 0.00 0.00 0.00 46 1013.9
20260507235005 57 263 1.7 3.5 0.00 0.00 0.00 44 1013.9
20260507234514 57 278 0.9 4.3 0.00 0.00 0.00 45 1013.9
20260507234006 57 261 1.7 7.0 0.00 0.00 0.00 44 1013.9
20260507233508 58 275 3.5 7.0 0.00 0.00 0.00 41 1013.9
20260507233028 58 253 2.6 5.2 0.00 0.00 0.00 40 1013.9
20260507232510 58 309 1.7 5.2 0.00 0.00 0.00 42 1013.9
20260507232012 58 280 1.7 5.2 0.00 0.00 0.00 42 1014.0
20260507231522 58 328 1.7 5.2 0.00 0.00 0.00 43 1013.9
20260507231012 58 343 2.6 5.2 0.00 0.00 0.00 41 1014.0
20260507230507 59 283 1.7 5.2 0.00 0.00 0.00 42 1014.0
20260507230006 59 281 1.7 6.1 0.00 0.00 0.00 41 1013.9
20260507225506 59 215 1.7 6.1 0.00 0.00 0.00 42 1014.0
20260507225007 59 270 1.7 5.2 0.00 0.00 0.00 42 1013.9
20260507224510 59 278 3.5 6.1 0.00 0.00 0.00 43 1013.9
20260507224006 59 257 2.6 8.7 0.00 0.00 0.00 42 1013.9
20260507223506 59 264 5.2 8.7 0.00 0.00 0.00 41 1013.9
20260507223016 59 246 3.5 8.7 0.00 0.00 0.00 44 1013.9
20260507222508 59 257 3.5 7.8 0.00 0.00 0.00 41 1014.0
20260507222008 59 335 1.7 5.2 0.00 0.00 0.00 39 1014.0
20260507221520 59 344 3.5 5.2 0.00 0.00 0.00 39 1014.0
20260507221015 59 13 2.6 5.2 0.00 0.00 0.00 39 1014.1